Location: ??????
(41.3164°N, 22.6615°E)
Time: 17:10:24
(UTC+00:00)

Cosmos 1300 - Pass Details

Date: 03 June 2022
Orbit: 506 x 508 km, 82.5° (Epoch: 01 July)

Event Time Altitude Azimuth Distance (km) Brightness Sun altitude
Rises 22:20:04 0° 352° (N) 2,619 7.6 -26.3°
Reaches altitude 10° 22:22:12 10° 353° (N) 1,728 6.4 -26.3°
Enters shadow 22:24:49 43° 357° (N) 725 3.8 -26.3°
